This demonstration page uses our WeatherBlox Daily Observations layout. Learn more.

Left ArrowRight Arrow

Hourly Observations for November 20, 2015

Temp ( °F °C ) Dew Point ( °F °C ) Humidity (%) Winds ( mph kmh ) Pressure ( in mb ) Visibility ( mi km ) Precip ( " mm )
12:53 am 00:53 Clear 30 -1.1 24 -4.4 79 79 Calm 30.30 1026 10 16 0.00 0.00
2:53 am 02:53 Clear 26 -3.3 23 -5 88 88 Calm 30.30 1026 10 16 0.00 0.00
3:53 am 03:53 Clear 27 -2.8 24 -4.4 89 89 Calm 30.32 1027 10 16 0.00 0.00
4:53 am 04:53 Clear 25 -3.9 24 -4.4 96 96 Calm 30.34 1027 10 16 0.00 0.00
5:53 am 05:53 Clear 24 -4.4 22 -5.6 91 91 Calm 30.35 1028 10 16 0.00 0.00
6:53 am 06:53 Clear 25 -3.9 22 -5.6 88 88 Calm 30.36 1028 10 16 0.00 0.00
7:53 am 07:53 Sunny 24 -4.4 22 -5.6 91 91 Calm 30.38 1029 10 16 0.00 0.00
8:53 am 08:53 Sunny 34 1.1 28 -2.2 79 79 Calm 30.39 1029 10 16 0.00 0.00
9:53 am 09:53 Sunny 41 5 24 -4.4 51 51 WSW 5 7 30.39 1029 10 16 0.00 0.00
10:53 am 10:53 Sunny 45 7.2 22 -5.6 40 40 Calm 30.40 1029 10 16 0.00 0.00
11:53 am 11:53 Sunny 49 9.4 20 -6.7 32 32 VRB 5 7 30.38 1029 10 16 0.00 0.00
12:53 pm 12:53 Sunny 51 10.6 16 -8.9 25 25 WNW 10 17 30.34 1027 10 16 0.00 0.00
1:53 pm 13:53 Sunny 50 10 17 -8.3 27 27 W 7 11 30.33 1027 10 16 0.00 0.00
2:53 pm 14:53 Sunny 52 11.1 16 -8.9 24 24 WNW 6 9 30.31 1026 10 16 0.00 0.00
3:53 pm 15:53 Sunny 50 10 16 -8.9 26 26 NNE 3 6 30.29 1026 10 16 0.00 0.00
4:53 pm 16:53 Sunny 46 7.8 21 -6.1 37 37 NW 6 9 30.30 1026 10 16 0.00 0.00
5:53 pm 17:53 Clear 46 7.8 21 -6.1 37 37 N 3 6 30.30 1026 10 16 0.00 0.00
6:53 pm 18:53 Clear 43 6.1 25 -3.9 49 49 SE 3 6 30.28 1026 10 16 0.00 0.00
7:53 pm 19:53 Clear 42 5.6 29 -1.7 60 60 Calm 30.27 1025 10 16 0.00 0.00
8:53 pm 20:53 Clear 41 5 30 -1.1 65 65 Calm 30.25 1024 10 16 0.00 0.00
9:53 pm 21:53 Clear 42 5.6 27 -2.8 55 55 E 3 6 30.22 1023 10 16 0.00 0.00
10:53 pm 22:53 Clear 39 3.9 24 -4.4 55 55 Calm 30.20 1023 10 16 0.00 0.00
11:53 pm 23:53 Clear 39 3.9 26 -3.3 60 60 Calm 30.21 1023 10 16 0.00 0.00

Powered by AerisWeather